Regional Weather Roundup
Issued by NWS

Home | Current Version | Previous Version | Graphics & Text | Print | Product List | Glossary Off
Versions: 1 2 3 4 5 6 7 8 9 10 11 12 13 14 15 16 17 18 19 20 21 22 23 24 25 26 27 28 29 30 31 32 33 34 35 36 37 38 39 40 41 42 43 44 45 46 47 48 49 50

000
ASUS43 KMPX 072110
RWRMN
WEATHER ROUNDUP FOR MINNESOTA
NATIONAL WEATHER SERVICE TWIN CITIES/CHANHASSEN MN
300 PM CST WED DEC 07 2016


NOTE: "FAIR" INDICATES FEW OR NO CLOUDS BELOW 12,000 FEET WITH NO
SIGNIFICANT WEATHER AND/OR OBSTRUCTIONS TO VISIBILITY. N/A MEANS
CURRENT SKY AND/OR WEATHER CONDITIONS ARE NOT AVAILABLE.

MNZ060>063-068>070-072200-
   Twin Cities Metro

CITY           SKY/WX    TMP DP  RH WIND       PRES   REMARKS
$$
MNZ001>005-007-008-013>017-022>024-027-028-072200-
   Northwest Minnesota

CITY           SKY/WX    TMP DP  RH WIND       PRES   REMARKS
THIEF RVR FALL LGT SNOW  19  18  93 NW22G28   29.93R FOG     WCI   3
$$
MNZ006-009>011-018-025>026-072200-
   North Central Minnesota

CITY           SKY/WX    TMP DP  RH WIND       PRES   REMARKS
BAUDETTE       LGT SNOW  25  20  81 N13       29.80R WCI  14
LONGVILLE      LGT SNOW  18  10  73 W12G21    29.89R WCI   5
COOK           SNOW      19  16  86 SW14G21   29.76R VSB 1/2 WCI   6
$$
MNZ012-019>021-037-072200-
   Northeast Minnesota

CITY           SKY/WX    TMP DP  RH WIND       PRES   REMARKS
DULUTH         LGT SNOW  18  12  77 W21G32    29.81R BLWGSNOWWCI   1
$$
MNZ029>031-032-039>041-046>048-054>057-064-072200-
   West Central Minnesota

CITY           SKY/WX    TMP DP  RH WIND       PRES   REMARKS
FERGUS FALLS   LGT SNOW  12   9  85 NW24G31   30.12R VSB 1   WCI  -8
WHEATON        LGT SNOW  16  10  79 W23G32    30.15R WCI  -2
ALEXANDRIA     LGT SNOW  13   8  81 W23G33    30.05R WCI  -6
ELBOW LAKE     LGT SNOW  13  10  87 NW22      30.08R VSB 3/4 WCI  -6
WADENA         LGT SNOW  12   7  79 W18G24    29.98R WCI  -5
APPLETON       CLOUDY    18   9  68 W26G32    30.14R WCI  -1
WILLMAR        LGT SNOW  19  12  73 W22G30    30.10R WCI   3
$$
MNZ033>034-036-042>043-049>051-058-059-072200-
   Central Minnesota

CITY           SKY/WX    TMP DP  RH WIND       PRES   REMARKS
$$
MNZ037-044-045-052-053-072200-
   East Central Minnesota

CITY           SKY/WX    TMP DP  RH WIND       PRES   REMARKS
PRINCETON      FLURRIES  19  10  68 W16G24    30.00S WCI   5
MORA           MOSUNNY   19   9  63 W14G23    29.98R WCI   6
CAMBRIDGE      FLURRIES  21  10  63 W15G28    29.98R WCI   8
RUSH CITY      PTSUNNY   19  10  68 W13G25    29.98R WCI   7
CLOQUET        LGT SNOW  18  10  73 SW13G26   29.84R WCI   4
$$
MNZ071>073-080-081-089-090-097-098-072200-
   Southwest Minnesota

CITY           SKY/WX    TMP DP  RH WIND       PRES   REMARKS
JACKSON        MOSUNNY   19   9  63 W25G32    30.13R WCI   2
SLAYTON        SUNNY     17   8  68 W29G37    30.14R WCI  -2
$$
MNZ065>067-074>077-082>085-091>093-072200-
   South Central Minnesota

CITY           SKY/WX    TMP DP  RH WIND       PRES   REMARKS
ST JAMES       PTSUNNY   21  10  63 W25G36    30.14R WCI   4
GLENCOE        FLURRIES  20  14  77 W20G29    30.08R WCI   5
OWATONNA       FLURRIES  19  10  68 W20G28    30.08R WCI   4
ALBERT LEA     CLOUDY    25  16  68 W12G23    30.08S WCI  14
$$
MNZ078>079-086>088-094>096-072200-
   Southeast Minnesota

CITY           SKY/WX    TMP DP  RH WIND       PRES   REMARKS
RED WING       CLOUDY    21   9  58 W20G26    30.04R WCI   6
AUSTIN         FLURRIES  19  10  68 W18G29    30.08S WCI   4
$$
ABBREVIATIONS USED IN REMARKS
   TC - TEMPERATURES IN CELSIUS
  WCI - WIND CHILL INDEX
   HX - HEAT INDEX
  VSB - VISIBILITY
$$




USA.gov is the U.S. government's official web portal to all federal, state and local government web resources and services.